Location: Bílinka
(49.3579°N, 14.3767°E)
Time: 00:46:39
(UTC+00:00)

Cosmos 1726 Rocket - Pass Details

Date: 28 January 2023
Orbit: 602 x 627 km, 82.5° (Epoch: 31 March)

Event Time Altitude Azimuth Distance (km) Brightness Sun altitude
Rises 17:24:04 0° 358° (N) 2,874 6.9 -15.0°
Reaches altitude 10° 17:26:34 10° 10° (N) 1,962 5.9 -15.4°
Enters shadow 17:29:59 28° 62° (ENE) 1,152 4.4 -16.0°
